This is the latest recevied weather packets stored in our database for station/object KD9ZDW. If no packets are shown the sender has not sent any weather packets the latest 10 day(s).
| Time | Temp. | Humidity | Pressure | Rain* | Wind** | Luminosity | Snow |
|---|---|---|---|---|---|---|---|
| 1777844284 | 10° C | 76% | 1014.2 hPa | 0 mm | - | 48 W/m² | - |
| 1777843981 | 10° C | 75% | 1014.3 hPa | 0 mm | - | 48 W/m² | - |
| 1777843678 | 10.56° C | 76% | 1014.6 hPa | 0 mm | - | 48 W/m² | - |
| 1777843376 | 10° C | 76% | 1014.4 hPa | 0 mm | - | 68 W/m² | - |
| 1777843073 | 10° C | 77% | 1014.8 hPa | 0 mm | - | 126 W/m² | - |
| 1777842769 | 10° C | 76% | 1014.8 hPa | 0 mm | - | 142 W/m² | - |
| 1777842464 | 10.56° C | 74% | 1015.3 hPa | 0 mm | - | 50 W/m² | - |
| 1777842162 | 10.56° C | 73% | 1015.1 hPa | 0 mm | - | 52 W/m² | - |
| 1777841862 | 11.11° C | 70% | 1015.3 hPa | 0 mm | - | 65 W/m² | - |
| 1777841559 | 11.11° C | 68% | 1015.4 hPa | 0 mm | - | 150 W/m² | - |
| 1777841255 | 11.11° C | 66% | 1015.5 hPa | 0 mm | - | 230 W/m² | - |
| 1777840953 | 11.11° C | 67% | 1015.8 hPa | 0 mm | - | 238 W/m² | - |
| 1777840651 | 11.67° C | 65% | 1015.5 hPa | 0 mm | - | 234 W/m² | - |
| 1777840348 | 11.11° C | 64% | 1015.8 hPa | 0 mm | - | 278 W/m² | - |
| 1777840045 | 11.67° C | 65% | 1015.8 hPa | 0 mm | - | 139 W/m² | - |
| 1777839743 | 11.67° C | 63% | 1015.8 hPa | 0 mm | - | 163 W/m² | - |
| 1777839440 | 12.22° C | 63% | 1015.9 hPa | 0 mm | - | 225 W/m² | - |
| 1777839138 | 12.22° C | 61% | 1015.8 hPa | 0 mm | - | 275 W/m² | - |
| 1777838834 | 12.78° C | 58% | 1015.8 hPa | 0 mm | - | 261 W/m² | - |
| 1777838530 | 12.78° C | 58% | 1015.7 hPa | 0 mm | - | 234 W/m² | - |
| 1777838227 | 13.33° C | 56% | 1015.8 hPa | 0 mm | - | 95 W/m² | - |
| 1777837924 | 14.44° C | 53% | 1015.7 hPa | 0 mm | - | 103 W/m² | - |
| 1777837621 | 15° C | 48% | 1015.4 hPa | 0 mm | - | 163 W/m² | - |
| 1777837316 | 15° C | 46% | 1015.3 hPa | 0 mm | - | 212 W/m² | - |
| 1777837013 | 15° C | 45% | 1015.3 hPa | 0 mm | - | 152 W/m² | - |
* Rain latest hour (hover to see other rain measurements)
** Current wind speed in m/s (hover to see current wind gust speed)